Tracking 29892 objects as of 21-Nov-2024
HD Live streaming from Space Station
objects crossing your sky now

TITAN 34B R/B

Track TITAN 34B R/B now!
10-day predictions


NORAD ID: 12446
Int'l Code: 1981-038B
Perigee: 312.6 km
Apogee: 17,542.8 km
Inclination: 63.1 °
Period: 313.9 minutes
Semi major axis: 15298 km
RCS: Unknown
Launch date: April 24, 1981
Source: United States (US)
Launch site: AIR FORCE WESTERN TEST RANGE (AFWTR)

Note: This is a ROCKET BODY
Your satellite tracking list
Your tracking list is empty




NASA's NSSDC Master Catalog

Two Line Element Set (TLE):
1 12446U 81038B   24325.57172704  .00008861  00000-0  20669-2 0  9994
2 12446  63.0525 179.1099 5631262 284.7614  21.8528  4.58796722 69385
Source of the keplerian elements: AFSPC